Location: Larch Mountain
(45.5297°N, 122.0872°W)
Time: 12:06:28
(UTC-08:00)

ISS - All Passes

Search period start: 10 February 2016 00:00
Search period end: 20 February 2016 00:00
Orbit: 399 x 408 km, 51.6° (Epoch: 10 February)

Date Brightness Start Highest point End Pass type
(mag) Time Alt. Az. Time Alt. Az. Time Alt. Az.
10 Feb - 15:33:01 10° SSW 15:35:58 33° SE 15:38:56 10° ENE daylight
10 Feb - 17:09:12 10° W 17:12:21 46° NNW 17:15:31 10° NE daylight
10 Feb - 18:46:29 10° WNW 18:49:18 26° N 18:52:07 10° ENE visible
10 Feb - 20:23:08 10° NW 20:26:16 43° NNE 20:29:23 10° E visible
10 Feb - 21:59:40 10° WNW 22:02:42 37° SW 22:05:44 10° SSE night (unlit)
11 Feb - 14:41:07 10° S 14:43:29 19° SE 14:45:52 10° E daylight
11 Feb - 16:16:23 10° WSW 16:19:38 71° NNW 16:22:53 10° ENE daylight
11 Feb - 17:53:35 10° WNW 17:56:27 28° N 17:59:19 10° NE visible
11 Feb - 19:30:29 10° NW 19:33:29 33° NNE 19:36:28 10° E visible
11 Feb - 21:06:53 10° WNW 21:10:07 67° SSW 21:13:20 10° SE visible
12 Feb - 13:50:24 10° SE 13:51:04 10° SE 13:51:43 10° ESE daylight
12 Feb - 15:23:44 10° SW 15:26:58 70° SSE 15:30:12 10° ENE daylight
12 Feb - 17:00:38 10° W 17:03:37 32° NNW 17:06:35 10° NE daylight
12 Feb - 18:37:46 10° NW 18:40:39 28° N 18:43:31 10° ENE visible
12 Feb - 20:14:12 10° WNW 20:17:27 73° NNE 20:20:41 10° ESE visible
12 Feb - 21:51:17 10° W 21:53:35 18° SW 21:55:52 10° S night (unlit)
13 Feb - 14:31:17 10° SSW 14:34:21 39° SE 14:37:25 10° ENE daylight
13 Feb - 16:07:40 10° W 16:10:48 42° NNW 16:13:55 10° NE daylight
13 Feb - 17:44:57 10° WNW 17:47:46 26° N 17:50:35 10° ENE daylight
13 Feb - 19:21:33 10° NW 19:24:42 48° NNE 19:27:52 10° E visible
13 Feb - 20:58:08 10° WNW 21:01:04 31° SW 21:03:59 10° SSE visible
14 Feb - 13:39:12 10° S 13:41:48 22° SE 13:44:25 10° E daylight
14 Feb - 15:14:47 10° WSW 15:18:01 61° NNW 15:21:15 10° ENE daylight
14 Feb - 16:52:02 10° WNW 16:54:53 27° N 16:57:44 10° NE daylight
14 Feb - 18:28:51 10° NW 18:31:54 35° NNE 18:34:55 10° E visible
14 Feb - 20:05:16 10° WNW 20:08:29 56° SSW 20:11:39 10° SE visible
15 Feb - 12:47:48 10° SSE 12:49:19 13° SE 12:50:50 10° ESE daylight
15 Feb - 14:22:02 10° WSW 14:25:17 82° SSE 14:28:33 10° ENE daylight
15 Feb - 15:59:03 10° WNW 16:02:00 31° N 16:04:56 10° NE daylight
15 Feb - 17:36:07 10° NW 17:39:02 29° N 17:41:56 10° ENE daylight
15 Feb - 19:12:31 10° WNW 19:15:47 85° NNE 19:19:01 10° ESE visible
15 Feb - 20:49:52 10° W 20:51:50 15° SW 20:53:47 10° S visible
16 Feb - 13:29:29 10° SW 13:32:37 46° SE 13:35:46 10° ENE daylight
16 Feb - 15:06:03 10° W 15:09:08 38° NNW 15:12:13 10° NE daylight
16 Feb - 16:43:17 10° WNW 16:46:07 27° N 16:48:57 10° ENE daylight
16 Feb - 18:19:49 10° NW 18:23:01 54° NNE 18:26:13 10° ESE visible
16 Feb - 19:56:32 10° W 19:59:18 26° SW 20:02:05 10° SSE visible
17 Feb - 12:37:13 10° SSW 12:40:00 26° SE 12:42:48 10° E daylight
17 Feb - 14:13:05 10° WSW 14:16:17 54° NNW 14:19:30 10° NE daylight
17 Feb - 15:50:21 10° WNW 15:53:11 27° N 15:56:01 10° ENE daylight
17 Feb - 17:27:06 10° NW 17:30:11 38° NNE 17:33:15 10° E daylight
17 Feb - 19:03:33 10° WNW 19:06:42 47° SW 19:09:49 10° SE visible
18 Feb - 11:45:29 10° S 11:47:27 15° SE 11:49:26 10° E daylight
18 Feb - 13:20:15 10° WSW 13:23:30 85° NW 13:26:47 10° ENE daylight
18 Feb - 14:57:20 10° WNW 15:00:16 29° N 15:03:11 10° NE daylight
18 Feb - 16:34:21 10° NW 16:37:17 30° N 16:40:14 10° ENE daylight
18 Feb - 18:10:44 10° WNW 18:14:00 83° SSW 18:17:14 10° ESE visible
18 Feb - 19:48:28 10° WSW 19:49:58 13° SW 19:51:28 10° SSW visible
19 Feb - 12:27:35 10° SW 12:30:46 56° SSE 12:33:58 10° ENE daylight
19 Feb - 14:04:18 10° W 14:07:21 35° NNW 14:10:23 10° NE daylight
19 Feb - 15:41:30 10° NW 15:44:21 27° N 15:47:12 10° ENE daylight
19 Feb - 17:17:59 10° WNW 17:21:13 61° NNE 17:24:25 10° ESE daylight
19 Feb - 18:54:49 10° W 18:57:26 22° SW 19:00:01 10° SSE visible
